Probability
52 50 48 38 19 6 2 1 0 0 0 0 0 0 0 0 0 0 0 0 0 0 0 0 0 0 0 0 0 0 0 0 0 0 0 0 0 0 0 0 0 0 0
70 64 59 48 28 11 5 3 1 0 0 0 0 0 0 0 0 0 0 0 0 0 0 0 0 0 0 0 0 0 0 0 0 0 0 0 0 0 0 0 0 0 0
82 75 69 62 44 24 13 8 4 1 1 0 0 0 0 0 0 0 0 0 0 0 0 0 0 0 0 0 0 0 0 0 0 0 0 0 0 0 0 0 0 0 0
75 70 69 69 57 39 24 15 8 5 2 2 1 1 0 0 0 0 0 0 0 0 0 0 0 0 0 0 0 0 0 0 0 0 0 0 0 0 0 0 0 0 0
61 61 70 73 64 51 37 26 18 11 5 4 3 2 1 1 1 1 0 0 0 0 0 0 0 0 0 0 0 0 0 0 0 0 0 0 0 0 0 0 0 0 0
58 64 72 75 69 61 51 40 31 21 11 7 6 4 3 4 3 2 1 0 0 0 0 0 0 0 0 0 0 0 0 0 0 0 0 0 0 0 0 0 0 0 0
66 70 73 74 73 69 62 54 46 35 24 17 13 11 10 9 7 3 1 0 0 0 0 0 0 0 0 0 0 0 0 0 0 0 0 0 0 0 0 0 0 0 0
74 76 75 72 71 69 67 65 62 55 44 33 25 20 18 14 9 4 2 1 0 0 0 0 0 0 0 0 0 0 0 0 0 0 0 0 0 0 0 0 0 0 0
77 80 77 71 67 63 64 67 70 69 61 50 38 29 22 15 8 4 3 2 1 0 0 0 0 0 0 0 0 0 0 0 0 0 0 1 1 1 0 0 0 0 0
80 81 76 70 64 59 59 64 71 73 68 57 42 30 20 10 4 2 3 4 2 1 0 0 0 0 0 0 0 0 0 0 0 0 0 2 4 3 1 0 0 0 0
82 78 70 64 60 55 55 64 71 68 60 48 36 25 14 5 1 1 4 6 4 1 0 0 0 0 0 0 0 0 0 0 0 0 2 7 9 6 3 1 0 0 0
85 78 64 54 52 49 54 68 70 59 45 34 26 20 11 5 3 5 10 12 6 1 1 1 1 0 0 0 0 0 0 0 0 0 6 14 14 8 4 2 0 0 0
89 80 63 51 46 46 57 71 67 54 41 28 24 22 15 10 10 16 22 18 8 3 2 2 2 1 0 0 0 0 0 0 0 1 8 18 18 10 5 4 3 2 1
90 83 70 60 54 53 65 72 61 50 42 33 32 31 24 18 17 24 29 20 8 3 3 3 2 1 0 0 0 0 1 1 1 3 10 18 18 13 8 7 8 6 4
90 86 79 74 70 70 75 73 60 51 46 44 46 43 33 26 25 30 32 23 11 4 3 2 3 3 2 1 0 1 2 3 4 5 9 14 17 17 13 11 11 10 9
86 85 84 83 82 82 81 77 68 62 59 58 60 55 42 36 40 45 42 30 16 9 9 8 7 9 7 4 3 2 4 5 8 8 8 9 12 15 16 14 12 12 13
82 81 82 82 82 82 81 79 74 70 69 70 72 67 54 48 55 60 54 40 24 19 23 23 19 18 15 11 9 8 8 10 11 12 11 9 9 11 14 15 14 14 16
80 78 77 75 76 78 78 75 71 67 67 71 74 72 62 56 60 63 58 48 37 32 35 34 29 25 22 19 17 14 13 13 13 13 14 15 15 13 13 15 17 17 17
78 76 73 70 71 73 73 68 63 58 58 60 63 64 59 55 56 56 55 53 48 43 41 36 33 31 28 23 18 16 18 18 16 14 14 17 20 17 14 15 17 16 16
75 74 72 70 70 69 66 60 52 46 44 45 47 50 50 47 47 47 49 51 52 51 47 42 40 39 34 28 18 16 21 22 20 17 15 14 15 15 14 13 13 13 13
67 68 67 66 66 65 61 54 44 36 33 33 32 35 38 38 38 38 41 46 52 56 55 51 49 45 40 36 28 22 20 19 17 16 15 13 11 11 12 11 10 11 12
52 54 57 58 57 56 55 52 43 34 28 25 22 22 26 30 33 35 39 44 50 55 56 55 53 47 43 42 37 25 16 13 12 11 12 12 11 10 10 9 8 8 9
37 40 44 48 48 47 49 48 41 31 25 20 16 15 19 25 29 33 37 38 41 46 47 47 48 46 43 41 36 25 16 12 10 7 8 9 9 9 7 5 5 5 5
26 28 33 38 40 40 42 41 35 28 22 16 13 13 16 21 25 27 28 27 28 31 32 32 35 39 38 35 31 26 20 14 9 6 5 5 6 5 4 3 2 2 2
16 20 25 30 32 34 35 33 27 23 17 11 10 10 12 14 18 18 17 16 17 18 19 20 23 26 27 25 23 21 18 13 7 4 2 1 2 2 1 1 0 0 0
11 15 21 25 27 30 32 28 22 17 12 8 7 8 8 9 11 12 12 11 11 12 14 15 15 16 17 16 14 12 11 8 5 3 1 0 0 0 0 0 0 0 0
Wind_Speed
17 18 19 18 17 17 17 16 15 14 14 13 13 12 12 12 12 12 12 12 11 10 10 9 8 8 8 9 10 11 12 12 13 14 15 15 13 12 10 9 10 12 13
20 19 18 18 18 18 17 17 16 15 14 13 13 12 12 12 12 12 11 11 11 11 10 9 9 9 9 9 10 10 10 10 11 12 13 12 11 10 8 7 9 10 12
20 18 17 17 18 19 18 17 16 16 15 14 13 12 12 12 11 11 11 11 10 10 10 10 10 10 9 9 9 9 9 8 8 9 10 9 9 9 10 13 15 13 11
20 17 17 18 18 19 19 18 17 17 16 15 14 13 12 12 11 11 11 10 10 10 10 10 10 9 9 9 8 8 7 6 6 7 5 6 8 10 9 11 11 11 9
18 17 17 18 18 18 19 19 18 17 17 16 15 14 13 12 11 11 11 10 10 10 10 10 10 9 9 8 7 6 5 5 5 6 3 5 8 10 9 9 9 8 8
18 18 18 17 18 18 18 19 18 18 17 16 15 14 13 12 11 11 10 10 10 10 9 10 9 9 8 8 7 5 4 4 5 5 2 7 9 10 10 8 7 7 6
17 17 18 16 17 17 18 18 18 18 16 15 15 14 13 12 11 11 11 10 10 10 9 9 9 8 8 7 6 4 3 4 6 4 2 6 10 12 10 8 7 6 6
17 18 16 17 18 17 18 17 17 17 16 15 14 13 13 12 11 11 11 10 10 9 9 9 8 8 7 6 5 3 3 6 6 4 2 8 13 12 10 8 6 6 6
16 18 15 15 15 16 16 16 16 16 16 15 14 13 13 12 12 11 10 10 10 10 9 9 8 7 6 5 4 2 3 6 8 4 3 7 13 12 10 8 7 6 5
14 16 15 15 14 14 13 16 16 15 15 15 15 14 13 13 12 11 11 10 10 10 9 9 8 7 6 5 4 4 5 7 7 4 3 8 13 12 11 9 8 7 6
13 15 15 16 15 14 14 14 15 15 14 14 13 14 13 10 10 10 11 12 11 10 10 9 8 7 7 7 7 6 6 5 7 1 3 12 14 13 11 9 8 8 8
14 15 14 16 16 15 13 12 10 10 11 10 10 11 9 7 8 10 12 14 12 11 10 10 9 8 7 6 8 9 5 8 6 2 5 15 14 13 11 10 9 9 9
15 15 15 14 14 14 10 10 7 7 9 9 10 11 8 6 6 6 6 8 8 10 8 8 8 7 7 6 5 7 8 6 2 2 7 15 13 13 12 11 10 10 10
14 15 15 15 14 13 11 10 8 7 8 8 8 10 7 4 4 6 5 7 7 6 6 7 6 8 7 6 5 6 6 3 2 1 6 12 12 11 11 10 10 10 10
12 14 14 11 11 8 7 8 9 7 8 7 6 8 7 5 5 5 5 5 7 6 7 6 7 6 5 4 4 4 3 2 1 1 5 10 10 9 9 9 9 10 10
10 9 9 9 10 8 6 6 6 6 5 7 6 8 8 6 5 4 4 4 4 4 5 4 4 3 3 2 2 2 2 2 1 1 2 5 8 8 8 7 7 8 9
6 6 5 7 8 7 7 6 4 4 4 4 4 6 6 5 4 3 3 3 3 2 2 2 2 1 2 2 2 1 1 2 2 2 1 1 3 5 5 4 4 5 6
5 6 7 8 9 7 5 4 3 3 4 3 3 4 5 4 4 3 3 3 3 2 2 2 1 1 2 1 1 1 0 1 1 2 1 2 2 2 2 2 1 1 2
3 5 5 5 6 6 4 3 3 1 2 2 2 3 4 4 4 3 3 3 3 2 2 3 3 2 2 1 1 1 1 1 1 1 3 4 4 4 4 4 5 6 6
6 5 4 3 4 5 4 2 2 1 0 1 1 1 2 3 4 4 3 4 3 2 2 2 2 2 1 1 1 0 1 1 2 3 3 4 5 6 5 6 4 6 10
9 6 4 2 2 3 4 4 3 2 1 1 0 2 2 3 4 4 4 4 3 3 3 4 3 3 2 2 1 0 1 2 3 3 4 4 5 6 7 8 6 5 5
9 8 6 4 2 1 2 3 2 2 2 2 1 1 1 1 3 4 4 3 3 3 3 3 3 2 2 2 1 1 2 2 3 4 4 5 6 6 8 9 8 7 6
10 8 6 6 4 2 2 2 3 3 2 2 3 2 2 3 2 0 2 2 2 2 2 2 2 3 2 2 1 1 1 2 3 4 6 6 6 6 6 6 9 9 8
9 8 7 6 6 4 3 3 3 3 3 2 3 3 4 5 4 4 3 3 3 2 3 2 2 1 2 2 2 1 1 2 2 3 3 5 6 7 6 6 7 7 7
9 8 6 7 7 5 4 4 5 5 4 4 5 6 6 6 7 7 5 4 5 4 5 5 5 4 3 3 2 2 2 2 3 2 3 3 3 4 5 5 4 4 5
9 9 8 8 8 7 7 7 7 8 7 7 7 6 6 5 6 9 8 7 7 7 7 7 7 8 7 6 5 4 3 3 2 2 3 3 3 3 4 3 4 3 3
Wind_Direction
129 135 139 141 143 144 144 141 139 138 134 129 125 122 118 114 109 106 105 105 107 110 112 114 114 110 102 95 90 90 93 96 97 95 94 94 96 100 102 113 112 96 99
131 137 140 142 145 147 147 145 144 142 139 136 133 131 128 123 118 115 113 111 111 113 113 114 114 112 108 104 101 102 102 104 106 107 109 105 104 100 86 77 95 106 107
130 138 142 144 148 149 150 148 147 145 144 142 140 138 135 130 126 122 119 116 116 117 116 115 115 115 114 113 113 114 116 122 128 135 141 126 114 102 89 88 98 109 110
134 145 147 147 151 152 153 151 150 149 149 147 145 144 141 137 132 129 125 122 120 120 120 119 118 118 119 120 122 125 132 145 157 171 186 136 130 113 103 102 107 112 115
140 147 142 150 152 154 154 154 153 152 151 150 149 148 145 141 137 134 131 127 126 126 126 125 122 122 124 126 128 134 150 173 198 225 222 122 111 126 121 118 118 119 121
145 144 144 152 153 155 156 156 155 154 154 153 152 151 148 145 142 139 136 134 133 132 131 128 126 128 129 127 130 143 172 210 244 238 217 128 123 137 136 135 134 132 131
147 142 148 153 154 156 157 157 156 155 155 154 154 153 151 148 146 144 142 141 140 137 134 131 130 129 129 131 136 153 202 245 255 274 234 125 129 144 147 151 150 148 151
146 141 146 153 155 157 158 158 157 156 155 155 155 154 152 150 150 150 148 148 147 143 140 137 135 135 134 138 146 170 244 279 266 268 175 120 139 149 154 159 161 165 169
146 141 150 156 159 160 159 158 157 156 155 154 154 155 156 156 157 157 155 155 154 150 148 148 146 144 144 148 158 194 264 287 294 281 139 126 145 153 160 166 173 179 184
149 146 156 161 163 163 163 163 160 158 157 156 158 160 161 162 165 165 162 162 162 160 160 160 160 159 161 167 181 215 258 284 266 261 114 136 152 160 165 172 183 192 199
156 150 162 166 167 169 168 165 163 161 160 160 163 166 166 172 173 175 175 164 169 170 170 170 172 175 181 193 204 220 245 256 253 226 121 149 161 167 171 180 192 201 209
163 161 170 173 171 175 172 161 169 170 167 175 171 172 183 185 182 181 165 166 175 179 180 182 186 192 208 207 208 215 234 239 250 193 152 159 166 170 176 187 199 209 217
172 169 174 179 172 178 170 161 174 178 169 190 178 178 193 190 184 165 154 166 178 184 190 186 194 210 213 219 197 199 225 242 231 187 151 163 169 174 182 193 205 213 221
175 176 177 179 175 181 170 165 175 182 170 186 177 180 192 191 187 161 167 176 183 191 197 185 204 209 218 220 216 214 224 228 228 131 150 165 173 179 189 200 209 218 224
180 181 174 176 173 171 158 167 177 185 173 180 176 184 187 186 195 175 180 179 191 190 192 199 207 200 204 215 237 241 250 276 302 72 140 170 176 182 193 205 216 224 229
174 182 170 162 161 159 159 170 173 184 167 181 175 184 195 192 190 175 179 184 209 190 185 198 215 186 182 216 239 269 301 321 12 58 124 166 178 185 193 204 217 228 234
160 162 154 154 160 165 171 178 174 182 172 176 166 171 198 206 180 180 175 180 224 209 172 167 226 194 185 205 219 273 328 343 356 21 40 131 166 182 193 202 221 239 247
139 152 157 170 164 163 159 168 185 189 176 174 157 162 199 204 177 187 181 191 210 208 166 170 212 196 189 193 186 195 123 58 14 4 7 32 66 89 154 155 129 13 332
100 126 142 147 146 149 155 177 208 193 174 160 150 173 192 204 189 189 198 194 197 199 184 197 181 198 190 198 204 165 162 129 74 19 41 39 43 52 59 74 67 55 42
49 80 114 142 147 144 145 164 228 219 82 78 89 215 188 206 214 197 195 196 200 189 198 195 164 178 194 180 231 131 86 89 75 57 55 53 51 52 50 54 58 55 52
35 49 70 91 130 148 153 170 204 209 189 122 130 234 190 201 217 214 210 193 200 194 201 193 186 187 188 168 167 137 90 69 70 63 58 55 53 53 53 50 44 39 50
32 31 39 39 33 155 171 166 173 155 140 147 155 52 12 215 213 213 207 191 197 193 198 187 178 177 180 163 167 176 167 132 68 58 63 62 56 54 56 54 48 44 42
31 22 20 27 32 45 115 143 142 134 146 149 108 79 45 45 27 116 148 154 152 160 164 164 170 186 175 141 116 161 173 159 114 72 60 61 58 57 56 55 53 47 46
23 20 16 29 36 34 77 125 140 136 125 110 102 94 61 53 49 46 71 88 85 94 102 103 84 100 130 137 110 74 71 85 122 122 80 65 62 59 55 54 55 54 52
19 21 23 36 44 34 54 95 117 109 102 96 95 81 65 54 50 50 56 70 75 75 78 77 71 68 73 76 79 78 70 65 63 117 127 110 75 64 63 60 60 58 58
25 22 28 42 45 38 50 66 85 99 106 106 97 89 75 61 52 52 58 63 69 69 70 73 73 71 71 73 67 60 61 66 63 80 110 122 112 96 81 69 66 60 61